Hilo, HI

10:42 AM HST on February 26, 2017 (GMT -1000)
Hilo International

Weather History for PHTO - October, 2012

Change the Weather History Date:

Wednesday, October 17, 2012

  Actual Average Record
Temperature  
Mean Temperature 74 °F 76 °F  
Max Temperature 79 °F 83 °F 89 °F (2015)
Min Temperature 69 °F 69 °F 64 °F (1955)
Degree Days  
Heating Degree Days 0 0  
Month to date heating degree days 0 0  
Since 1 July heating degree days 0 0  
Cooling Degree Days 9 11  
Month to date cooling degree days 185 187  
Year to date cooling degree days 2540 2595  
Growing Degree Days 23 (Base 50)    
Moisture  
Dew Point 68 °F    
Average Humidity 84    
Maximum Humidity 97    
Minimum Humidity 71    
Precipitation  
Precipitation 0.57 in 0.28 in 3.57 in (1960)
Month to date precipitation 1.95 4.97  
Year to date precipitation 72.42 94.85  
Snow  
Snow 0.00 in - - ()
Month to date snowfall 0.0  
Since 1 July snowfall 0.0  
Since 1 September snowfall 0.0  
Snow Depth 0.00 in    
Sea Level Pressure  
Sea Level Pressure 29.97 in    
Wind  
Wind Speed 6 mph (WSW)    
Max Wind Speed 9 mph    
Max Gust Speed 12 mph    
Visibility 8 miles    
Events Rain    
T = Trace of Precipitation, MM = Missing Value Source: NWS Daily Summary

Daily Weather History Graph

Daily Weather History Graph

Search for Another Location

Airport or City:

Trip Planner

Search our weather history database for the weather conditions in past years. The results will help you decide how hot, cold, wet, or windy it might be!

Date:

Astronomy

Oct. 17, 2012 Rise Set
Actual Time 6:15 AM HST 5:54 PM HST
Civil Twilight 5:53 AM HST 6:17 PM HST
Nautical Twilight 5:27 AM HST 6:42 PM HST
Astronomical Twilight 5:02 AM HST 7:08 PM HST
Moon 8:38 AM HST (10/17) 8:06 PM HST (10/17)
Length of Visible Light 12h 23m
Length of Day
11h 39m
Waxing Crescent, 8% of the Moon is Illuminated
Oct 17
Waxing Crescent
Oct 21
First Quarter
Oct 29
Full
Nov 6
Last Quarter
Nov 13
New

Hourly Weather History & Observations

Time (HST) Temp. Dew Point Humidity Pressure Visibility Wind Dir Wind Speed Gust Speed Precip Events Conditions
12:23 AM 69.8 °F 66.2 °F 88% 30.00 in 3.0 mi SE 5.8 mph - 0.04 in Rain Heavy Rain
12:32 AM 69.8 °F 68.0 °F 94% 30.00 in 2.5 mi Calm Calm - 0.10 in Rain Heavy Rain
12:41 AM 69.8 °F 68.0 °F 94% 30.00 in 3.0 mi South 3.5 mph - 0.13 in Rain Heavy Rain
12:48 AM 69.8 °F 68.0 °F 94% 29.99 in 1.8 mi Calm Calm - 0.18 in Rain Heavy Rain
12:49 AM 70.0 °F 69.1 °F 97% 29.99 in 1.8 mi Calm Calm - 0.20 in Rain Heavy Rain
12:59 AM 71.6 °F 69.8 °F 94% 29.99 in 3.0 mi WSW 3.5 mph - 0.10 in Rain Light Rain
1:34 AM 69.8 °F 68.0 °F 94% 29.98 in 10.0 mi West 4.6 mph - 0.13 in   Overcast
1:53 AM 70.0 °F 68.0 °F 93% 29.97 in 10.0 mi West 4.6 mph - 0.13 in   Overcast
2:21 AM 69.8 °F 66.2 °F 88% 29.96 in 10.0 mi West 5.8 mph - N/A   Overcast
2:53 AM 70.0 °F 66.9 °F 90% 29.95 in 10.0 mi SW 4.6 mph - N/A   Overcast
3:32 AM 69.8 °F 66.2 °F 88% 29.94 in 10.0 mi SW 6.9 mph - N/A   Mostly Cloudy
3:53 AM 70.0 °F 64.9 °F 84% 29.93 in 10.0 mi WSW 8.1 mph - N/A   Mostly Cloudy
4:53 AM 69.1 °F 64.9 °F 87% 29.94 in 10.0 mi WSW 6.9 mph - 0.00 in   Mostly Cloudy
5:50 AM 69.8 °F 66.2 °F 88% 29.95 in 7.0 mi South 4.6 mph - 0.00 in Rain Light Rain
5:53 AM 69.1 °F 66.9 °F 93% 29.95 in 5.0 mi South 4.6 mph - 0.00 in Rain Light Rain
6:53 AM 70.0 °F 68.0 °F 93% 29.96 in 2.5 mi WSW 4.6 mph - 0.04 in Rain Rain
7:03 AM 69.8 °F 68.0 °F 94% 29.97 in 7.0 mi Variable 5.8 mph - 0.03 in Rain Heavy Rain
7:53 AM 71.1 °F 68.0 °F 90% 29.98 in 10.0 mi West 8.1 mph - 0.12 in   Mostly Cloudy
8:53 AM 72.0 °F 69.1 °F 91% 29.99 in 4.0 mi WSW 5.8 mph - 0.00 in Rain Light Rain
9:50 AM 75.2 °F 69.8 °F 83% 30.00 in 10.0 mi West 8.1 mph - 0.03 in   Overcast
9:53 AM 75.0 °F 70.0 °F 84% 30.00 in 10.0 mi West 8.1 mph - 0.03 in   Overcast
10:53 AM 79.0 °F 68.0 °F 69% 29.99 in 10.0 mi Variable 3.5 mph - N/A   Overcast
11:08 AM 77.0 °F 69.8 °F 78% 29.99 in 10.0 mi SSW 8.1 mph - N/A   Overcast
11:40 AM 75.2 °F 69.8 °F 83% 29.98 in 4.0 mi SSW 6.9 mph - 0.02 in Rain Light Rain
11:53 AM 75.0 °F 70.0 °F 84% 29.97 in 10.0 mi SW 4.6 mph - 0.02 in   Overcast
12:28 PM 75.2 °F 66.2 °F 73% 29.97 in 5.0 mi SSW 3.5 mph - 0.00 in Rain Light Rain
12:37 PM 73.4 °F 68.0 °F 83% 29.97 in 2.0 mi Calm Calm - 0.02 in Rain Light Rain
12:46 PM 73.4 °F 69.8 °F 88% 29.96 in 5.0 mi Calm Calm - 0.02 in Rain Light Rain
12:53 PM 73.9 °F 69.1 °F 85% 29.96 in 4.0 mi West 3.5 mph - 0.03 in Rain Light Rain
1:23 PM 73.4 °F 71.6 °F 94% 29.95 in 10.0 mi NW 8.1 mph - 0.00 in   Overcast
1:37 PM 73.4 °F 69.8 °F 88% 29.95 in 7.0 mi WNW 5.8 mph - 0.00 in   Overcast
1:53 PM 73.9 °F 70.0 °F 87% 29.94 in 10.0 mi WNW 8.1 mph - 0.00 in   Overcast
2:53 PM 75.0 °F 69.1 °F 82% 29.93 in 10.0 mi WNW 8.1 mph - N/A   Overcast
3:53 PM 75.9 °F 69.1 °F 79% 29.94 in 10.0 mi West 5.8 mph - N/A   Overcast
4:53 PM 75.0 °F 66.9 °F 76% 29.95 in 10.0 mi Calm Calm - 0.00 in   Overcast
5:53 PM 73.0 °F 68.0 °F 84% 29.96 in 10.0 mi WSW 3.5 mph - 0.00 in   Overcast
6:04 PM 73.4 °F 66.2 °F 78% 29.96 in 10.0 mi WSW 8.1 mph - N/A   Overcast
6:46 PM 71.6 °F 64.4 °F 78% 29.97 in 10.0 mi WSW 5.8 mph - N/A   Overcast
6:53 PM 72.0 °F 64.9 °F 78% 29.97 in 10.0 mi WSW 5.8 mph - N/A   Overcast
7:06 PM 71.6 °F 66.2 °F 83% 29.98 in 10.0 mi WSW 5.8 mph - N/A   Overcast
7:19 PM 71.6 °F 66.2 °F 83% 29.98 in 10.0 mi SSW 3.5 mph - N/A   Overcast
7:53 PM 71.1 °F 66.0 °F 84% 29.99 in 10.0 mi SW 3.5 mph - N/A   Mostly Cloudy
8:19 PM 71.6 °F 66.2 °F 83% 30.00 in 10.0 mi Calm Calm - N/A   Mostly Cloudy
8:46 PM 71.6 °F 66.2 °F 83% 30.01 in 10.0 mi Calm Calm - 0.00 in Rain Light Rain
8:53 PM 71.1 °F 66.9 °F 87% 30.01 in 10.0 mi Calm Calm - 0.00 in Rain Light Rain
9:06 PM 69.8 °F 66.2 °F 88% 30.01 in 10.0 mi SSW 3.5 mph - 0.00 in   Overcast
9:53 PM 70.0 °F 64.9 °F 84% 30.01 in 10.0 mi SW 5.8 mph - 0.00 in   Partly Cloudy
10:53 PM 69.1 °F 64.9 °F 87% 30.01 in 10.0 mi SW 4.6 mph - N/A   Clear
11:53 PM 69.1 °F 64.9 °F 87% 30.00 in 10.0 mi SW 5.8 mph - N/A   Mostly Cloudy